Location: *
(53.9002°N, 27.5624°E)
Time: 02:54:13
(UTC+00:00)

NOSS 3-1 (C) - Pass Details

Date: 12 November 2019
Orbit: 765 x 1444 km, 63.4° (Epoch: 02 December)

Event Time Altitude Azimuth Distance (km) Brightness Sun altitude
Rises 16:47:15 0° 207° (SSW) 3,319 6.7 -22.1°
Reaches altitude 10° 16:49:35 10° 202° (SSW) 2,446 5.9 -22.4°
Maximum altitude 16:55:03 54° 127° (SE) 1,105 3.4 -23.2°
Enters shadow 16:55:53 50° 97° (E) 1,173 3.5 -23.3°
